V.C. Bird, Antigua

11:19 PM AST on July 20, 2017 (GMT -0400)
V C Bird International

Weather History for TAPA - March, 2014

Change the Weather History Date:

Sunday, March 9, 2014

  Actual Average Record
Temperature  
Mean Temperature 78 °F -  
Max Temperature 83 °F 82 °F 86 °F (1998)
Min Temperature 72 °F 73 °F 35 °F (2005)
Cooling Degree Days 12    
Growing Degree Days 28 (Base 50)    
Moisture  
Dew Point 67 °F    
Average Humidity 70    
Maximum Humidity 83    
Minimum Humidity 52    
Precipitation  
Precipitation 0.00 in - - ()
Sea Level Pressure  
Sea Level Pressure 30.00 in    
Wind  
Wind Speed 5 mph ()    
Max Wind Speed 10 mph    
Max Gust Speed -    
Visibility 9.4 miles    
Events      
Averages and records for this station are not official NWS values.
T = Trace of Precipitation, MM = Missing Value Source: Averaged Metar Reports

Daily Weather History Graph

Daily Weather History Graph

Search for Another Location

Airport or City:

Trip Planner

Search our weather history database for the weather conditions in past years. The results will help you decide how hot, cold, wet, or windy it might be!

Date:

Astronomy

Mar. 09, 2014 Rise Set
Actual Time 6:19 AM AST 6:15 PM AST
Civil Twilight 5:57 AM AST 6:37 PM AST
Nautical Twilight 5:32 AM AST 7:02 PM AST
Astronomical Twilight 5:07 AM AST 7:27 PM AST
Moon 12:40 PM AST (3/9) 1:05 AM AST (3/9)
Length of Visible Light 12h 39m
Length of Day
11h 56m
First Quarter, 61% of the Moon is Illuminated
Mar 9
First Quarter
Mar 16
Full
Mar 23
Last Quarter
Mar 30
New
Apr 7
First Quarter

Hourly Weather History & Observations

Time (AST) Temp. Heat Index Dew Point Humidity Pressure Visibility Wind Dir Wind Speed Gust Speed Precip Events Conditions
12:00 AM 75.2 °F - 68.0 °F 78% 30.01 in 6.2 mi ESE 4.6 mph - N/A   Partly Cloudy
1:00 AM 73.4 °F - 68.0 °F 83% 30.01 in 6.2 mi SE 4.6 mph - N/A   Mostly Cloudy
2:00 AM 73 °F - 69 °F 82% 29.99 in 19 mi SE 6.9 mph - -   Mostly Cloudy
2:00 AM 73.4 °F - 68.0 °F 83% 29.98 in 6.2 mi SE 6.9 mph - N/A   Mostly Cloudy
3:00 AM 73.4 °F - 66.2 °F 78% 29.98 in 6.2 mi SSE 3.5 mph - N/A   Mostly Cloudy
4:00 AM 73.4 °F - 66.2 °F 78% 29.98 in 6.2 mi Variable 2.3 mph - N/A   Mostly Cloudy
5:00 AM 74 °F - 67 °F 72% 29.99 in 19 mi 1.2 mph - -   Mostly Cloudy
5:00 AM 73.4 °F - 66.2 °F 78% 29.98 in 6.2 mi Variable 1.2 mph - N/A   Mostly Cloudy
6:00 AM 73.4 °F - 68.0 °F 83% 29.98 in 6.2 mi Variable 2.3 mph - N/A   Mostly Cloudy
7:00 AM 73.4 °F - 68.0 °F 83% 30.01 in 6.2 mi SSE 3.5 mph - N/A   Mostly Cloudy
8:00 AM 78 °F - 69 °F 67% 30.04 in 19 mi SE 4.6 mph - -   Mostly Cloudy
8:00 AM 78.8 °F - 69.8 °F 74% 30.04 in 6.2 mi SE 4.6 mph - N/A   Mostly Cloudy
9:00 AM 80.6 °F 83.2 °F 68.0 °F 65% 30.04 in 6.2 mi ESE 6.9 mph - N/A   Scattered Clouds
10:00 AM 80.6 °F 83.2 °F 68.0 °F 65% 30.06 in 6.2 mi ESE 8.1 mph - N/A   Mostly Cloudy
11:00 AM 82 °F - 68 °F 54% 30.06 in 19 mi East 9.2 mph - -   Mostly Cloudy
11:00 AM 82.4 °F 85.4 °F 68.0 °F 62% 30.04 in 6.2 mi East 9.2 mph - N/A   Scattered Clouds
12:00 PM 82.4 °F 83.9 °F 64.4 °F 54% 30.04 in 6.2 mi ESE 10.4 mph - N/A   Partly Cloudy
1:00 PM 82.4 °F 84.6 °F 66.2 °F 58% 30.01 in 6.2 mi ESE 9.2 mph - N/A   Partly Cloudy
2:00 PM 82 °F - 67 °F 52% 29.99 in 19 mi East 10.4 mph - -   Partly Cloudy
2:00 PM 82.4 °F 85.4 °F 68.0 °F 62% 29.98 in 6.2 mi East 10.4 mph - N/A   Partly Cloudy
3:00 PM 82.4 °F 84.6 °F 66.2 °F 58% 29.98 in 6.2 mi East 9.2 mph - N/A   Partly Cloudy
4:00 PM 80.6 °F 83.2 °F 68.0 °F 65% 29.95 in 6.2 mi East 9.2 mph - N/A   Partly Cloudy
5:00 PM 80 °F - 65 °F 52% 29.97 in 19 mi East 6.9 mph - -   Scattered Clouds
5:00 PM 80.6 °F 82.7 °F 66.2 °F 61% 29.95 in 6.2 mi East 6.9 mph - N/A   Partly Cloudy
6:00 PM 78.8 °F - 66.2 °F 65% 29.98 in 6.2 mi ESE 3.5 mph - N/A   Partly Cloudy
7:00 PM 77.0 °F - 66.2 °F 69% 29.98 in 6.2 mi SE 3.5 mph - N/A   Partly Cloudy
8:00 PM 74 °F - 66 °F 69% 30.01 in 19 mi 1.2 mph - -   Scattered Clouds
8:00 PM 75.2 °F - 66.2 °F 73% 30.01 in 6.2 mi Variable 1.2 mph - N/A   Partly Cloudy
9:00 PM 75.2 °F - 66.2 °F 73% 30.01 in 6.2 mi Variable 1.2 mph - N/A   Partly Cloudy
10:00 PM 73.4 °F - 66.2 °F 78% 30.01 in 6.2 mi Variable 1.2 mph - N/A   Partly Cloudy
11:00 PM 73 °F - 66 °F 72% 30.02 in 19 mi Calm Calm - -   Scattered Clouds
11:00 PM 73.4 °F - 66.2 °F 78% 30.01 in 6.2 mi Calm Calm - N/A   Partly Cloudy